Starlink 1201

operational
NORAD ID: 45182 Int'l Des: 2020-012 Owner: SPXS Country: US Constellation: starlink
LEOCIRCULAR

About Starlink 1201

Description loading...

Live Position

Loading 3D Globe...

Upcoming Passes

Altitude History

Altitude vs Time

uPlot chart will show altitude changes over time

Two-Line Element Set

1 45182U 20012E 25258.82805206 .00674034 23524-3 92222-3 0 9991
2 45182 53.0369 36.6895 0002634 355.5175 4.5833 16.05658958309379
Epoch: Sep 15, 2025 • Age: 13 hours

Current Status

Altitude 257.3 km
Velocity 7.75 km/s
Sub-Earth Point -8.15°S, 107.04°W
Launch Date Feb 17, 2020
Age 5.5 years
Type internet

Technical Details

Classification Payload
Mass 260.00 kg
Dry Mass 248.00 kg
Total Mass 260.00 kg
Length 0.20 m
Diameter 2.80 m
Span 9.00 m
Shape Box + pan
Manufacturer SPXS
Bus Type Starlink
Phase Status In Orbit
Owner/State SPXS/US

Large Constellations

Loading constellations...